Regional Weather Roundup
Issued by NWS

Home | Current Version | Previous Version | Graphics & Text | Print | Product List | Glossary On
Versions: 1 2 3 4 5 6 7 8 9 10 11 12 13 14 15 16 17 18 19 20 21 22 23 24 25 26 27 28 29 30 31 32 33 34 35 36 37 38 39 40 41 42 43 44 45 46 47 48 49 50
000
ASUS45 KBOU 261207
RWRCO

WEATHER ROUNDUP FOR COLORADO
NATIONAL WEATHER SERVICE DENVER/BOULDER CO
600 AM MDT SAT JUL 26 2014

NOTE: "FAIR" INDICATES FEW OR NO CLOUDS BELOW 12000 FEET WITH NO
SIGNIFICANT WEATHER AND/OR OBSTRUCTIONS TO VISIBILITY.

COZ001>005-013-030-031-261300-
...NORTHWEST COLORADO...

CITY           SKY/WX    TMP DP  RH WIND       PRES   REMARKS
CRAIG          MOCLDY    57  50  77 E3        30.23R
HAYDEN         MOCLDY    59  48  67 SE9       30.25R
MEEKER         CLOUDY    59  52  77 NE5       30.24R
MOUNT WERNER   NOT AVBL
STEAMBOAT SPGS MOCLDY    53  48  83 N3        30.29R
WALDEN         PTCLDY    50  41  71 E6        30.36R
$$

COZ006>008-011-261300-
...WEST CENTRAL VALLEYS...

CITY           SKY/WX    TMP DP  RH WIND       PRES   REMARKS
GRAND JUNCTION PTCLDY    66  52  60 SE6       30.13R
MONTROSE       CLEAR     63  50  62 SE7       30.22R
EAGLE          MOCLDY    54  48  82 SE3       30.32S
RIFLE          MOCLDY    65  49  56 NE3       30.20R
DELTA          CLEAR     64  48  56 NE6       30.18R
NUCLA          CLEAR     63  46  55 SE7       30.25S
$$

COZ017>023-064>068-261300-
...SOUTHWEST COLORADO...

CITY           SKY/WX    TMP DP  RH WIND       PRES   REMARKS
DURANGO        PTCLDY    59  44  57 CALM      30.27R
CORTEZ         CLEAR     58  46  64 NE7       30.22S
PAGOSA SPRINGS PTCLDY    54  46  73 CALM      30.35S
TELLURIDE      CLEAR     55  46  71 SE7       30.47R
WOLF CREEK PAS NOT AVBL
$$

COZ009-010-012-014-032>034-037-058>063-261300-
...CENTRAL COLORADO...

CITY           SKY/WX    TMP DP  RH WIND       PRES   REMARKS
ASPEN          PTCLDY    54  44  69 S3        30.36R
BUENA VISTA    CLEAR     50  45  83 NW7       30.40R
COPPER MTN     MOCLDY    54  36  50 W15       30.69S
BERTHOUD PASS  CLOUDY    45  32  61 NW13      30.73R
COTTONWOOD PAS CLEAR     61  39  44 W10       30.52R
GUNNISON       PTCLDY    48  43  81 CALM      30.43R
KREMMLING      CLOUDY    50  46  87 CALM      30.39R
LEADVILLE      PTCLDY    41  40  96 CALM      30.52R
MONARCH PASS   CLEAR     48  39  71 W14       30.78S
SALIDA         CLEAR    N/A N/A N/A W3        30.44R
SUNLIGHT       MOCLDY    55  41  58 CALM      30.59S
WILKERSON PASS NOT AVBL
$$

COZ069>075-261300-
...SAN LUIS VALLEY/SANGRE DE CRISTO MOUNTAINS...

CITY           SKY/WX    TMP DP  RH WIND       PRES   REMARKS
ALAMOSA        PTCLDY    48  45  89 SW5       30.35R
LA VETA PASS   CLEAR     54  41  62 W7        30.53R
SAGUACHE       PTCLDY    55  46  71 CALM      30.38R
$$

COZ035-036-038>040-261300-
...NORTHERN COLORADO FRONT RANGE...

CITY           SKY/WX    TMP DP  RH WIND       PRES   REMARKS
DENVER INTL AP PTCLDY    70  46  42 SW10      30.11R
DMNS CITY PARK   N/A     66  49  55 S7        30.12R
AURORA         PTCLDY    63  49  60 S10       30.14R
FRONT RANGE AP NOT AVBL
ERIE MUNI ARPT PTCLDY    60  50  69 CALM      30.08R
BOULDER MUN AP PTCLDY    70  43  37 E5        30.08S
CENTENNIAL     PTCLDY    63  48  58 CALM      30.15R
BROOMFIELD     PTCLDY    72  46  40 CALM      30.13R
FORT COLLINS   PTCLDY    57  52  82 NE6       30.10R
LONGMONT       PTCLDY    66  53  61 CALM      30.08S
$$

COZ041-046-047-076>085-087-088-261300-
...PIKES PEAK/PALMER DIVIDE AND SOUTHERN FOOTHILLS...

CITY           SKY/WX    TMP DP  RH WIND       PRES   REMARKS
COLO. SPRINGS  MOCLDY    69  45  41 NW12      30.19R
A. F. ACADEMY  CLEAR     56  47  72 N6        30.22R
ELLICOTT       CLEAR     59  50  72 CALM      30.17R
FALCON         CLEAR     64  43  45 NW9       30.23F
FORT CARSON    CLEAR     61  50  66 N7        30.15R
LIMON          CLEAR     53  51  93 CALM      30.12R
MONUMENT HILL  NOT AVBL
TRINIDAD       CLEAR     65  51  60 W18       30.16R
$$

COZ042>045-048>051-090-091-261300-
...NORTHEAST COLORADO...

CITY           SKY/WX    TMP DP  RH WIND       PRES   REMARKS
GREELEY ARPT   CLEAR     55  48  76 CALM      30.08R
AKRON          CLEAR     69  52  54 W14       30.04R
BURLINGTON     PTCLDY    67  60  78 W7        30.01R
WRAY             N/A     66  57  74 W7        29.97R
STERLING       CLEAR     59  59 100 N8        30.02R
HOLYOKE        CLEAR     63  59  88 W3        29.97R
FORT MORGAN    CLEAR     62  53  72 W7        30.06R
$$

COZ086-089-092>099-261300-
...SOUTHEAST COLORADO...

CITY           SKY/WX    TMP DP  RH WIND       PRES   REMARKS
PUEBLO         CLEAR     63  58  83 W5        30.08R
LA JUNTA       CLEAR     67  59  75 W10       30.03R
LAMAR          CLEAR     64  61  90 SW6       29.99R
SPRINGFIELD      N/A     64  57  78 W5        30.05R
$$



USA.gov is the U.S. government's official web portal to all federal, state and local government web resources and services.